Wind_Gust
13 12 14 13 12 12 12 13 11 12 10 10 11 7 9 5 5 7 6 7 7 10 10 10 9 9 9 8 7 8 7 7 6 7 10 11 9 9 10 9 9 10
13 14 13 12 10 10 10 11 10 13 11 10 10 9 6 6 5 8 7 6 7 9 9 9 9 9 8 8 7 8 6 7 7 5 12 11 8 11 9 8 7 6
12 12 13 11 12 9 10 10 11 11 12 10 10 10 8 7 6 5 6 6 7 7 9 8 8 8 8 8 7 7 8 7 7 6 11 9 8 11 6 7 8 7
11 13 12 11 10 10 9 12 10 10 10 11 10 10 10 7 7 6 5 7 7 7 7 8 9 8 8 8 8 9 7 7 6 8 9 7 7 8 7 7 7 9
12 11 10 10 9 12 11 14 12 12 11 11 10 9 10 7 7 6 6 6 7 6 6 7 7 8 7 8 8 8 7 8 5 8 9 7 5 8 5 9 8 8
11 13 12 11 11 13 14 15 14 12 11 10 12 10 10 9 8 7 6 6 4 6 6 6 7 6 6 6 6 6 7 8 5 7 8 7 5 5 6 7 8 8
13 13 13 13 10 13 14 14 13 13 13 12 9 9 11 11 9 8 7 6 6 7 7 7 7 6 5 6 6 6 5 6 5 7 7 4 6 5 5 6 6 6
11 11 13 10 12 13 14 14 13 13 11 10 10 9 11 11 10 7 6 7 7 7 7 7 6 6 4 6 7 6 5 5 6 7 7 5 6 4 3 4 5 7
14 10 13 12 13 13 15 15 14 12 11 13 11 10 8 11 10 9 8 7 6 6 6 6 7 6 5 6 6 7 7 5 6 8 9 8 8 6 4 4 6 6
18 14 6 12 13 11 14 13 13 12 11 13 12 10 10 7 8 9 8 7 7 5 6 6 6 6 6 7 7 8 9 8 6 7 7 7 8 7 7 6 6 4
12 8 8 7 5 6 9 8 10 11 9 11 10 9 8 8 7 8 8 8 10 9 8 7 7 7 7 6 5 5 7 7 6 6 5 6 7 7 7 6 4 4
9 9 6 6 7 6 9 10 9 8 8 8 11 10 7 8 10 8 11 11 10 11 10 9 7 9 9 8 6 6 6 7 6 6 5 6 5 5 5 4 5 4
11 11 10 5 8 5 5 8 11 9 9 9 7 8 8 7 9 10 8 11 11 10 10 10 10 10 11 9 8 8 8 8 7 6 7 7 7 8 7 6 6 6
15 13 8 8 7 5 5 6 5 5 6 4 3 5 7 8 9 10 8 9 11 12 11 10 10 9 9 9 8 9 8 6 8 8 9 7 6 5 6 6 7 7
6 9 7 5 7 7 6 6 5 5 5 5 5 5 5 5 6 7 5 4 4 6 7 6 9 10 10 10 9 7 10 10 9 9 9 7 5 4 3 5 5 5
6 7 7 5 7 6 4 3 3 4 5 6 6 6 6 5 6 5 6 7 6 5 6 8 8 5 6 11 10 12 11 11 10 10 10 9 8 5 3 2 4 4
6 6 7 7 6 3 2 5 5 5 5 5 5 6 7 6 6 6 5 6 7 7 6 7 8 8 9 10 11 12 10 10 11 11 9 10 9 10 9 8 5 5
7 7 6 6 5 3 5 6 6 6 5 2 2 4 4 6 7 5 4 4 6 5 6 6 5 7 12 12 13 13 10 11 9 10 10 9 9 10 10 9 8 7
7 6 5 6 5 5 5 7 7 7 7 8 7 5 3 4 5 5 4 3 4 6 6 5 5 8 10 10 12 14 15 12 11 10 11 10 9 9 9 9 8 8
7 7 6 6 7 7 7 6 5 4 4 4 4 7 5 2 2 4 3 4 5 6 6 6 6 8 12 11 10 11 13 11 9 10 10 10 10 11 10 11 11 11
17 16 15 12 9 6 7 5 5 8 7 6 4 12 16 14 7 7 7 6 6 6 6 7 8 10 13 13 12 11 11 8 6 7 7 8 10 9 10 11 12 11
14 15 15 13 13 13 13 13 11 11 12 13 12 14 13 13 12 7 9 7 7 6 6 8 8 9 13 13 13 12 10 9 7 9 9 10 10 9 9 10 8 10
16 15 13 12 12 14 14 13 13 12 7 5 5 8 8 8 9 8 7 6 6 6 7 10 9 8 12 14 14 12 8 9 8 9 10 10 11 9 11 9 8 9
15 15 16 16 17 17 15 13 12 9 8 8 6 8 9 8 7 9 8 8 7 9 12 10 13 10 13 13 13 15 13 12 11 11 11 11 9 8 9 9 8 10
15 15 15 15 15 14 14 14 14 12 11 10 10 9 9 10 12 11 13 10 7 8 9 12 12 11 12 14 15 15 14 9 10 11 11 10 10 10 5 5 6 6
18 18 16 16 15 14 14 13 11 13 15 14 12 11 13 12 11 12 11 12 12 8 10 10 12 13 11 15 15 16 16 13 10 10 13 10 9 11 10 6 5 6
Wind_Speed
6 5 7 7 7 7 7 7 6 6 5 5 6 3 5 3 2 4 4 4 5 6 5 6 5 5 5 5 4 5 4 4 4 4 6 6 5 5 6 5 5 5
6 6 6 6 6 6 6 7 6 7 5 5 6 5 3 4 2 4 4 4 4 5 5 5 5 5 5 4 4 5 4 4 4 3 7 6 4 6 6 5 5 4
5 6 7 7 7 6 6 6 6 6 6 5 5 5 4 4 4 4 4 4 4 5 5 5 5 4 4 4 4 4 4 4 4 4 6 5 4 6 4 4 5 5
6 7 7 7 6 6 6 7 6 5 6 6 6 5 5 3 4 4 3 4 5 4 4 5 5 4 5 4 4 4 4 4 4 5 5 4 4 5 4 4 4 5
7 6 6 6 6 7 7 8 8 7 7 6 5 5 6 4 4 4 3 4 4 4 4 4 4 5 5 4 5 4 3 4 3 5 6 4 3 5 3 5 5 5
5 6 7 7 7 8 7 9 9 8 7 6 7 5 5 5 5 4 4 4 4 4 4 4 4 4 4 4 4 4 4 4 2 4 5 4 4 3 3 4 5 5
7 6 7 8 6 7 8 8 8 8 8 7 5 5 5 5 5 4 4 4 4 4 4 4 4 3 3 3 3 3 2 3 2 4 4 3 4 4 3 4 4 4
7 7 7 6 7 7 8 8 8 8 6 6 6 5 6 6 5 4 4 4 4 4 4 4 4 4 3 4 4 4 3 2 3 4 4 3 4 3 3 3 4 4
7 6 8 8 9 7 9 9 9 7 7 8 7 6 5 6 5 4 4 4 4 4 4 4 4 4 3 4 4 4 4 3 3 4 5 4 4 3 2 2 4 4
9 5 5 8 9 7 8 7 7 7 7 8 7 6 6 4 5 4 4 4 4 4 4 4 4 4 4 4 5 5 4 4 4 4 5 5 5 4 3 2 3 3
5 5 6 5 3 3 5 5 6 6 5 7 6 6 5 5 4 4 5 4 5 5 4 4 4 5 5 4 4 4 5 4 4 4 4 4 4 4 3 3 2 2
6 5 5 3 3 4 6 7 6 6 5 5 7 7 5 5 6 4 6 6 6 5 5 5 4 5 5 4 4 3 4 4 4 4 4 4 4 4 4 3 3 3
8 8 6 3 3 4 3 5 7 6 6 6 4 5 5 5 5 6 5 6 7 6 6 6 6 5 5 5 4 4 4 5 4 4 4 4 4 5 4 4 4 4
7 7 4 5 3 3 3 3 2 4 4 3 2 4 4 5 6 6 5 5 6 6 6 6 6 6 5 5 5 5 5 4 4 4 4 3 3 3 4 4 4 4
3 6 4 3 4 4 4 3 3 2 3 4 3 3 3 3 4 5 4 3 3 5 4 4 5 6 6 6 5 5 5 5 5 5 5 4 3 3 2 3 3 3
4 3 4 3 4 4 3 2 2 3 3 4 4 4 4 3 4 3 4 4 4 3 4 4 5 4 5 10 9 8 7 6 6 6 6 6 6 4 3 2 2 2
4 4 4 4 3 2 2 3 3 3 3 3 3 4 5 4 4 4 3 3 4 4 4 4 5 4 7 9 10 11 7 6 7 7 6 6 6 6 6 5 3 3
5 4 4 3 3 2 4 3 3 3 3 2 2 3 3 4 4 3 2 1 2 3 4 4 4 5 10 11 11 11 9 6 5 6 6 6 6 6 6 5 6 5
3 3 3 3 3 3 4 3 4 3 4 4 4 3 2 2 3 4 3 1 1 2 3 3 3 7 8 8 11 12 13 10 6 6 7 6 6 6 6 6 6 6
4 3 3 4 4 5 5 3 3 3 3 3 3 2 3 2 1 3 3 3 3 4 4 3 4 7 10 10 9 10 11 9 6 6 6 6 6 6 6 7 7 7
10 10 10 7 5 4 3 3 2 4 4 1 1 2 0 1 4 3 4 4 4 4 4 4 3 7 9 9 9 9 9 7 4 4 4 4 5 4 5 7 7 7
9 9 9 8 8 8 8 8 7 6 7 7 7 8 8 4 6 5 5 5 5 4 5 5 5 8 10 11 11 10 8 5 4 5 5 5 5 5 5 6 5 6
9 10 8 7 7 9 9 8 8 8 6 1 1 4 5 5 5 5 4 3 4 4 5 6 5 7 11 12 12 11 6 5 5 5 5 5 6 6 7 6 5 6
9 9 10 10 10 11 10 8 8 6 5 4 4 4 4 4 3 4 4 5 5 5 7 6 7 7 11 10 11 12 10 7 6 6 7 7 6 5 6 6 5 9
8 9 9 9 9 9 8 9 8 7 6 5 5 4 4 5 4 5 5 2 3 5 6 7 7 7 10 11 12 13 10 5 6 6 7 6 6 6 4 4 4 5
10 10 10 9 9 8 8 7 6 7 8 8 7 7 7 7 7 7 7 7 7 5 3 5 7 8 7 13 13 13 13 8 6 6 7 6 6 7 6 4 4 4
Wind_Direction
146 148 146 141 138 137 136 135 137 131 131 127 120 138 132 152 131 105 107 94 96 103 109 106 105 98 92 88 90 86 83 92 80 87 86 89 87 94 86 83 74 90
155 150 143 131 123 125 129 134 136 136 145 139 137 134 131 122 129 118 116 101 90 103 110 110 111 112 109 105 104 98 82 79 79 92 98 92 101 88 83 83 94 96
150 153 143 138 139 134 130 133 135 139 139 144 135 134 138 130 124 110 114 112 104 110 112 117 113 114 112 116 113 110 115 107 102 97 96 108 103 92 101 95 79 80
162 154 138 129 129 123 120 122 124 123 123 132 146 148 136 135 124 120 108 107 115 120 122 117 124 122 126 133 125 124 133 126 136 111 100 92 95 103 89 86 82 64
151 130 122 119 113 116 124 128 134 139 144 148 140 134 126 129 124 124 120 117 125 128 121 124 127 135 139 139 133 130 125 116 102 96 94 86 61 83 68 79 77 68
127 128 122 121 127 126 137 138 142 144 143 145 155 140 140 144 142 148 145 139 135 126 124 129 136 150 140 137 121 123 131 120 112 100 99 102 80 68 87 85 87 78
130 126 128 119 119 130 137 140 145 147 154 154 135 143 144 147 155 158 152 145 136 137 144 152 154 159 144 127 120 126 122 125 107 105 107 92 91 72 67 86 84 81
102 120 113 105 119 139 141 148 152 153 151 142 146 155 151 156 160 161 149 144 145 151 155 161 164 164 147 128 132 135 150 132 123 113 102 95 92 87 45 50 82 77
78 103 125 134 138 154 154 156 155 151 153 150 151 157 159 156 162 162 159 153 149 157 148 158 166 171 152 137 149 158 162 156 149 131 127 126 120 143 134 101 75 72
108 106 134 143 142 167 157 152 148 152 157 152 157 152 156 163 159 161 159 159 164 176 171 157 154 164 166 162 157 165 162 169 168 142 140 149 154 168 166 119 116 95
67 70 92 85 108 110 119 127 146 150 153 153 149 156 160 156 172 165 163 174 182 193 191 162 165 173 174 165 144 153 156 159 150 128 144 159 161 166 167 138 124 141
122 91 44 41 73 95 137 148 150 151 150 156 160 164 162 170 171 185 175 187 197 195 190 177 171 177 177 173 162 153 149 150 147 148 146 146 154 166 160 158 170 181
124 148 162 115 118 131 142 146 154 157 156 163 167 159 164 171 187 180 200 184 200 193 191 184 177 180 180 180 174 167 165 166 152 111 128 148 159 167 171 174 176 169
150 156 136 128 96 71 69 70 86 123 121 122 129 159 169 179 184 195 201 196 195 195 198 188 178 182 185 184 181 174 173 173 142 137 146 147 150 134 144 162 161 160
120 119 116 99 86 73 64 51 47 63 102 113 119 124 139 178 188 175 154 172 194 198 187 183 181 185 184 178 170 168 175 165 156 152 150 146 132 121 125 130 134 148
91 95 107 91 80 76 78 77 52 54 88 97 100 107 103 99 121 129 151 159 149 151 160 167 185 192 191 175 164 165 175 166 159 163 160 155 153 160 178 155 153 170
93 90 79 77 80 75 57 58 42 45 54 65 64 83 96 89 87 93 122 153 150 151 156 170 171 169 165 156 157 160 161 165 167 178 177 166 167 173 190 201 198 200
42 69 89 99 92 51 38 58 64 61 68 50 73 93 95 89 90 98 87 99 126 143 157 172 181 170 165 158 160 165 168 172 176 180 190 191 186 189 199 195 195 199
59 63 70 72 79 90 78 64 53 53 56 53 24 359 45 90 126 122 140 153 143 175 207 200 198 171 190 185 180 177 179 175 188 190 186 198 196 195 195 202 197 198
47 71 92 88 67 41 28 22 56 58 71 73 18 16 27 34 100 134 160 171 189 201 220 230 227 185 192 203 204 196 189 180 188 188 197 196 196 194 192 199 204 200
29 27 30 36 51 66 81 79 45 0 349 55 14 287 230 310 290 234 202 201 209 219 228 242 214 173 196 204 212 212 204 200 194 197 199 207 209 204 199 204 209 207
38 39 34 27 33 39 38 33 37 35 1 359 9 343 342 322 267 228 204 209 215 211 222 235 248 172 183 202 209 216 201 204 206 203 205 211 219 217 219 217 209 202
30 36 32 30 26 32 30 27 25 18 18 12 208 251 244 254 269 282 283 257 230 226 221 248 250 194 180 191 200 198 188 212 210 217 216 215 221 223 226 220 205 202
30 32 31 25 25 23 18 15 13 11 4 1 4 332 315 305 296 286 242 210 221 227 218 226 255 213 188 191 190 190 194 196 205 203 217 217 222 226 224 224 214 207
30 31 30 29 27 18 15 14 11 1 351 354 342 326 316 315 325 329 324 296 201 214 239 242 250 244 192 194 195 193 199 211 202 201 212 216 201 216 228 233 248 236
25 26 26 25 21 16 13 11 1 6 2 357 354 354 343 339 336 338 335 325 326 315 272 223 246 263 219 195 197 197 201 205 203 198 215 207 195 198 208 236 247 257